START_TIME,STEP,MOV.,E45,t_acc.,ALAR?,t_acc.,A12,t_acc.,A24,t_acc.
1989-08-26T15:00:26.950 ,1,0,0.,4.8,0.,4.8,0.,4.8,0.,4.8
1989-08-26T15:00:31.750 ,1,0,0.,4.8,0.,4.8,0.,4.8,0.,4.8
1989-08-26T15:00:36.550 ,1,0,0.,4.8,0.,4.8,0.,4.8,0.,4.8
1989-08-26T15:00:41.350 ,1,0,0.,4.8,0.,4.8,0.,4.8,0.,4.8
1989-08-26T15:00:46.150 ,1,0,0.,4.8,0.,4.8,0.,4.8,0.,4.8
1989-08-26T15:00:50.950 ,0,0,0.,4.8,0.,4.8,0.,4.8,0.,4.8
1989-08-26T15:00:55.750 ,0,0,0.,4.8,0.,4.8,0.,4.8,0.,4.8
1989-08-26T15:01:00.550 ,0,0,0.,4.8,0.,4.8,0.,4.8,0.,4.8
1989-08-26T15:01:05.350 ,0,0,0.,4.8,0.,4.8,0.,4.8,0.,4.8
1989-08-26T15:01:10.150 ,0,0,0.,4.8,0.,4.8,0.,4.8,0.,4.8
1989-08-26T15:01:14.950 ,0,0,0.,4.8,0.,4.8,0.,4.8,0.,4.8
1989-08-26T15:01:19.750 ,0,0,0.,4.8,0.,4.8,0.,4.8,0.,4.8
1989-08-26T15:01:24.550 ,0,0,0.,4.8,0.,4.8,0.,4.8,0.,4.8
1989-08-26T15:01:29.350 ,0,0,0.,4.8,0.,4.8,0.,4.8,0.,4.8
1989-08-26T15:01:34.150 ,0,0,0.,4.8,0.,4.8,0.,4.8,0.,4.8
1989-08-26T15:01:38.950 ,0,0,0.,4.8,0.,4.8,0.,4.8,0.,4.8
1989-08-26T15:01:43.750 ,0,0,0.,4.8,0.,4.8,0.,4.8,0.,4.8
1989-08-26T15:01:48.550 ,0,0,0.,4.8,0.,4.8,0.,4.8,0.,4.8
1989-08-26T15:01:53.350 ,0,0,0.,4.8,0.,4.8,0.,4.8,0.,4.8
1989-08-26T15:01:58.150 ,0,0,0.,4.8,0.,4.8,0.,4.8,0.,4.8
1989-08-26T15:02:02.950 ,0,0,0.,4.8,0.,4.8,0.,4.8,0.,4.8
1989-08-26T15:02:07.750 ,0,0,0.,4.8,0.,4.8,0.,4.8,0.,4.8
1989-08-26T15:02:12.550 ,0,0,0.,4.8,0.,4.8,0.,4.8,0.,4.8
1989-08-26T15:02:17.350 ,0,0,0.,4.8,0.,4.8,0.,4.8,0.,4.8
1989-08-26T15:02:22.150 ,0,0,0.,4.8,0.,4.8,0.,4.8,0.,4.8
1989-08-26T15:02:26.950 ,1,0,0.,4.8,0.,4.8,0.,4.8,0.,4.8
1989-08-26T15:02:31.750 ,1,0,0.,4.8,0.,4.8,0.,4.8,0.,4.8
1989-08-26T15:02:36.550 ,1,0,0.,4.8,0.,4.8,0.,4.8,0.,4.8
1989-08-26T15:02:41.350 ,1,0,0.,4.8,0.,4.8,0.,4.8,0.,4.8
1989-08-26T15:02:46.150 ,1,0,0.,4.8,0.,4.8,0.,4.8,0.,4.8
1989-08-26T15:02:50.950 ,1,0,0.,4.8,0.,4.8,0.,4.8,0.,4.8
1989-08-26T15:02:55.750 ,1,0,0.,4.8,0.,4.8,0.,4.8,0.,4.8
1989-08-26T15:03:00.550 ,1,0,0.,4.8,0.,4.8,0.,4.8,0.,4.8
1989-08-26T15:03:05.350 ,1,0,0.,4.8,0.,4.8,0.,4.8,0.,4.8
1989-08-26T15:03:10.150 ,1,0,0.,4.8,0.,4.8,0.,4.8,0.,4.8
1989-08-26T15:03:14.950 ,2,0,0.,4.8,0.,4.8,0.,4.8,0.,4.8
1989-08-26T15:03:19.750 ,2,0,0.,4.8,0.,4.8,0.,4.8,0.,4.8
1989-08-26T15:03:24.550 ,2,0,0.,4.8,0.,4.8,0.,4.8,0.,4.8
1989-08-26T15:03:29.350 ,2,0,0.,4.8,0.,4.8,0.,4.8,0.,4.8
1989-08-26T15:03:34.150 ,2,0,0.,4.8,0.,4.8,0.,4.8,0.,4.8
1989-08-26T15:03:38.950 ,2,0,0.,4.8,0.,4.8,0.,4.8,0.,4.8
1989-08-26T15:03:43.750 ,2,0,0.,4.8,0.,4.8,0.,4.8,0.,4.8
1989-08-26T15:03:48.550 ,2,0,0.,4.8,0.,4.8,0.,4.8,0.,4.8
1989-08-26T15:03:53.350 ,2,0,0.,4.8,0.,4.8,0.,4.8,0.,4.8
1989-08-26T15:03:58.150 ,2,0,0.,4.8,0.,4.8,0.,4.8,0.,4.8
1989-08-26T15:04:02.950 ,3,0,0.,4.8,0.,4.8,0.,4.8,0.,4.8
1989-08-26T15:04:07.750 ,3,0,0.,4.8,0.,4.8,0.,4.8,0.,4.8
1989-08-26T15:04:12.550 ,3,0,0.,4.8,0.,4.8,0.,4.8,0.,4.8
1989-08-26T15:04:17.350 ,3,0,0.,4.8,0.,4.8,0.,4.8,0.,4.8
1989-08-26T15:04:22.150 ,3,0,0.,4.8,0.,4.8,0.,4.8,0.,4.8
1989-08-26T15:04:26.950 ,3,0,0.,4.8,0.,4.8,0.,4.8,0.,4.8
1989-08-26T15:04:31.750 ,3,0,0.,4.8,0.,4.8,0.,4.8,0.,4.8
1989-08-26T15:04:36.550 ,3,0,0.,4.8,0.,4.8,0.,4.8,0.,4.8
1989-08-26T15:04:41.350 ,3,0,0.,4.8,0.,4.8,0.,4.8,0.,4.8
1989-08-26T15:04:46.150 ,3,0,0.,4.8,0.,4.8,0.,4.8,0.,4.8
1989-08-26T15:04:50.950 ,4,0,0.,4.8,0.,4.8,0.,4.8,0.,4.8
1989-08-26T15:04:55.750 ,4,0,0.,4.8,0.,4.8,0.,4.8,0.,4.8
1989-08-26T15:05:00.550 ,4,0,0.,4.8,0.,4.8,0.,4.8,0.,4.8
1989-08-26T15:05:05.350 ,4,0,0.,4.8,0.,4.8,0.,4.8,0.,4.8
1989-08-26T15:05:10.150 ,4,0,0.,4.8,0.,4.8,0.,4.8,0.,4.8
1989-08-26T15:05:14.950 ,4,0,0.,4.8,0.,4.8,0.,4.8,0.,4.8
1989-08-26T15:05:19.750 ,4,0,0.,4.8,0.,4.8,0.,4.8,0.,4.8
1989-08-26T15:05:24.550 ,4,0,0.,4.8,0.,4.8,0.,4.8,0.,4.8
1989-08-26T15:05:29.350 ,4,0,0.,4.8,0.,4.8,0.,4.8,0.,4.8
1989-08-26T15:05:34.150 ,4,0,0.,4.8,0.,4.8,0.,4.8,0.,4.8
1989-08-26T15:05:38.950 ,5,0,0.,4.8,0.,4.8,0.,4.8,0.,4.8
1989-08-26T15:05:43.750 ,5,0,0.,4.8,0.,4.8,0.,4.8,0.,4.8
1989-08-26T15:05:48.550 ,5,0,0.,4.8,0.,4.8,0.,4.8,0.,4.8
1989-08-26T15:05:53.350 ,5,0,0.,4.8,0.,4.8,0.,4.8,0.,4.8
1989-08-26T15:05:58.150 ,5,0,0.,4.8,0.,4.8,0.,4.8,0.,4.8
1989-08-26T15:06:02.950 ,5,1,,0,,0,,0,,0
1989-08-26T15:06:07.750 ,5,1,,0,,0,,0,,0
1989-08-26T15:06:12.550 ,5,1,,0,,0,,0,,0
1989-08-26T15:06:17.350 ,5,1,,0,,0,,0,,0
1989-08-26T15:06:22.150 ,5,1,,0,,0,,0,,0
1989-08-26T15:06:41.950 ,0,0,,0,,0,,0,,0
1989-08-26T15:06:46.750 ,0,0,,0,,0,,0,,0
1989-08-26T15:06:51.550 ,0,0,,0,,0,,0,,0
1989-08-26T15:06:56.350 ,0,0,0.,4.8,0.,4.8,0.,4.8,0.,4.8
1989-08-26T15:07:01.150 ,0,0,0.,4.8,0.,4.8,0.,4.8,0.,4.8
1989-08-26T15:06:50.950 ,0,0,0.,4.8,0.,4.8,0.,4.8,0.,4.8
1989-08-26T15:06:55.750 ,0,0,0.,4.8,0.,4.8,0.,4.8,0.,4.8
1989-08-26T15:07:00.550 ,0,0,0.,4.8,0.,4.8,0.,4.8,0.,4.8
1989-08-26T15:07:05.350 ,0,0,0.,4.8,0.,4.8,0.,4.8,0.,4.8
1989-08-26T15:07:10.150 ,0,0,0.,4.8,0.,4.8,0.,4.8,0.,4.8
1989-08-26T15:07:14.950 ,7,0,0.,4.8,0.,4.8,0.,4.8,0.,4.8
1989-08-26T15:07:19.750 ,7,0,0.,4.8,0.,4.8,0.,4.8,0.,4.8
1989-08-26T15:07:24.550 ,7,0,0.,4.8,0.,4.8,0.,4.8,0.,4.8
1989-08-26T15:07:29.350 ,7,0,0.,4.8,0.,4.8,0.,4.8,0.,4.8
1989-08-26T15:07:34.150 ,7,0,0.,4.8,0.,4.8,0.,4.8,0.,4.8
1989-08-26T15:07:38.950 ,7,0,0.,4.8,0.,4.8,0.,4.8,0.,4.8
1989-08-26T15:07:43.750 ,7,0,0.,4.8,0.,4.8,0.,4.8,0.,4.8
1989-08-26T15:07:48.550 ,7,0,0.,4.8,0.,4.8,0.,4.8,0.,4.8
1989-08-26T15:07:53.350 ,7,0,0.,4.8,0.,4.8,0.,4.8,0.,4.8
1989-08-26T15:07:58.150 ,7,0,0.,4.8,0.,4.8,0.,4.8,0.,4.8
1989-08-26T15:08:02.950 ,7,0,0.,4.8,0.,4.8,0.,4.8,0.,4.8
1989-08-26T15:08:07.750 ,7,0,0.,4.8,0.,4.8,0.,4.8,0.,4.8
1989-08-26T15:08:12.550 ,7,0,0.,4.8,0.,4.8,0.,4.8,0.,4.8
1989-08-26T15:08:17.350 ,7,0,0.,4.8,0.,4.8,0.,4.8,0.,4.8
1989-08-26T15:08:22.150 ,7,0,0.,4.8,0.,4.8,0.,4.8,0.,4.8
1989-08-26T15:08:26.950 ,7,0,0.,4.8,0.,4.8,0.,4.8,0.,4.8
1989-08-26T15:08:31.750 ,7,0,0.,4.8,0.,4.8,0.,4.8,0.,4.8
1989-08-26T15:08:36.550 ,7,0,0.,4.8,0.,4.8,0.,4.8,0.,4.8
1989-08-26T15:08:41.350 ,7,0,0.,4.8,0.,4.8,0.,4.8,0.,4.8
1989-08-26T15:08:46.150 ,7,0,0.,4.8,0.,4.8,0.,4.8,0.,4.8
1989-08-26T15:08:50.950 ,6,0,0.,4.8,0.,4.8,0.,4.8,0.,4.8
1989-08-26T15:08:55.750 ,6,0,0.,4.8,0.,4.8,0.,4.8,0.,4.8
1989-08-26T15:09:00.550 ,6,0,0.,4.8,0.,4.8,0.,4.8,0.,4.8
1989-08-26T15:09:05.350 ,6,0,0.,4.8,0.,4.8,0.,4.8,0.,4.8
1989-08-26T15:09:10.150 ,6,0,0.,4.8,0.,4.8,0.,4.8,0.,4.8
1989-08-26T15:09:14.950 ,6,0,0.,4.8,0.,4.8,0.,4.8,0.,4.8
1989-08-26T15:09:19.750 ,6,0,0.,4.8,0.,4.8,0.,4.8,0.,4.8
1989-08-26T15:09:24.550 ,6,0,0.,4.8,0.,4.8,0.,4.8,0.,4.8
1989-08-26T15:09:29.350 ,6,0,0.,4.8,0.,4.8,0.,4.8,0.,4.8
1989-08-26T15:09:34.150 ,6,0,0.,4.8,0.,4.8,0.,4.8,0.,4.8
1989-08-26T15:09:38.950 ,5,0,0.,4.8,0.,4.8,0.,4.8,0.,4.8
1989-08-26T15:09:43.750 ,5,0,0.,4.8,0.,4.8,0.,4.8,0.,4.8
1989-08-26T15:09:48.550 ,5,0,0.,4.8,0.,4.8,0.,4.8,0.,4.8
1989-08-26T15:09:53.350 ,5,0,0.,4.8,0.,4.8,0.,4.8,0.,4.8
1989-08-26T15:09:58.150 ,5,0,0.,4.8,0.,4.8,0.,4.8,0.,4.8
1989-08-26T15:10:02.950 ,5,0,0.,4.8,0.,4.8,0.,4.8,0.,4.8
1989-08-26T15:10:07.750 ,5,0,0.,4.8,0.,4.8,0.,4.8,0.,4.8
1989-08-26T15:10:12.550 ,5,0,0.,4.8,0.,4.8,0.,4.8,0.,4.8
1989-08-26T15:10:17.350 ,5,0,0.,4.8,0.,4.8,0.,4.8,0.,4.8
1989-08-26T15:10:22.150 ,5,0,0.,4.8,0.,4.8,0.,4.8,0.,4.8
1989-08-26T15:10:26.950 ,4,0,0.,4.8,0.,4.8,0.,4.8,0.,4.8
1989-08-26T15:10:31.750 ,4,0,0.,4.8,0.,4.8,0.,4.8,0.,4.8
1989-08-26T15:10:36.550 ,4,0,0.,4.8,0.,4.8,0.,4.8,0.,4.8
1989-08-26T15:10:41.350 ,4,0,0.,4.8,0.,4.8,0.,4.8,0.,4.8
1989-08-26T15:10:46.150 ,4,0,0.,4.8,0.,4.8,0.,4.8,0.,4.8
1989-08-26T15:10:50.950 ,4,0,0.,4.8,0.,4.8,0.,4.8,0.,4.8
1989-08-26T15:10:55.750 ,4,0,0.,4.8,0.,4.8,0.,4.8,0.,4.8
1989-08-26T15:11:00.550 ,4,0,0.,4.8,0.,4.8,0.,4.8,0.,4.8
1989-08-26T15:11:05.350 ,4,0,0.,4.8,0.,4.8,0.,4.8,0.,4.8
1989-08-26T15:11:10.150 ,4,0,0.,4.8,0.,4.8,0.,4.8,0.,4.8
1989-08-26T15:11:14.950 ,3,0,0.,4.8,0.,4.8,0.,4.8,0.,4.8
1989-08-26T15:11:19.750 ,3,0,0.,4.8,0.,4.8,0.,4.8,0.,4.8
1989-08-26T15:11:24.550 ,3,0,0.,4.8,0.,4.8,0.,4.8,0.,4.8
1989-08-26T15:11:29.350 ,3,0,0.,4.8,0.,4.8,0.,4.8,0.,4.8
1989-08-26T15:11:34.150 ,3,0,0.,4.8,0.,4.8,0.,4.8,0.,4.8
1989-08-26T15:11:38.950 ,3,0,0.,4.8,0.,4.8,0.,4.8,0.,4.8
1989-08-26T15:11:43.750 ,3,0,0.,4.8,0.,4.8,0.,4.8,0.,4.8
1989-08-26T15:11:48.550 ,3,0,0.,4.8,0.,4.8,0.,4.8,0.,4.8
1989-08-26T15:11:53.350 ,3,0,0.,4.8,0.,4.8,0.,4.8,0.,4.8
1989-08-26T15:11:58.150 ,3,0,0.,4.8,0.,4.8,0.,4.8,0.,4.8
1989-08-26T15:12:02.950 ,2,0,0.,4.8,0.,4.8,0.,4.8,0.,4.8
1989-08-26T15:12:07.750 ,2,0,0.,4.8,0.,4.8,0.,4.8,0.,4.8
1989-08-26T15:12:12.550 ,2,0,0.,4.8,0.,4.8,0.,4.8,0.,4.8
1989-08-26T15:12:17.350 ,2,0,0.,4.8,0.,4.8,0.,4.8,0.,4.8
1989-08-26T15:12:22.150 ,2,0,0.,4.8,0.,4.8,0.,4.8,0.,4.8
1989-08-26T15:12:26.950 ,2,0,0.,4.8,0.,4.8,0.,4.8,0.,4.8
1989-08-26T15:12:31.750 ,2,0,0.,4.8,0.,4.8,0.,4.8,0.,4.8
1989-08-26T15:12:36.550 ,2,0,0.,4.8,0.,4.8,0.,4.8,0.,4.8
1989-08-26T15:12:41.350 ,2,0,0.,4.8,0.,4.8,0.,4.8,0.,4.8
1989-08-26T15:12:46.150 ,2,0,0.,4.8,0.,4.8,0.,4.8,0.,4.8
1989-08-26T15:12:50.950 ,1,0,0.,4.8,0.,4.8,0.,4.8,0.,4.8
1989-08-26T15:12:55.750 ,1,0,0.,4.8,0.,4.8,0.,4.8,0.,4.8
1989-08-26T15:13:00.550 ,1,0,0.,4.8,0.,4.8,0.,4.8,0.,4.8
1989-08-26T15:13:05.350 ,1,0,0.,4.8,0.,4.8,0.,4.8,0.,4.8
1989-08-26T15:13:10.150 ,1,0,0.,4.8,0.,4.8,0.,4.8,0.,4.8
1989-08-26T15:13:14.950 ,1,0,0.,4.8,0.,4.8,0.,4.8,0.,4.8
1989-08-26T15:13:19.750 ,1,0,0.,4.8,0.,4.8,0.,4.8,0.,4.8
1989-08-26T15:13:24.550 ,1,0,0.,4.8,0.,4.8,0.,4.8,0.,4.8
1989-08-26T15:13:29.350 ,1,0,0.,4.8,0.,4.8,0.,4.8,0.,4.8
1989-08-26T15:13:34.150 ,1,0,0.,4.8,0.,4.8,0.,4.8,0.,4.8
1989-08-26T15:13:38.950 ,0,0,0.,4.8,0.,4.8,0.,4.8,0.,4.8
1989-08-26T15:13:43.750 ,0,0,0.,4.8,0.,4.8,0.,4.8,0.,4.8
1989-08-26T15:13:48.550 ,0,0,0.,4.8,0.,4.8,0.,4.8,0.,4.8
1989-08-26T15:13:53.350 ,0,0,0.,4.8,0.,4.8,0.,4.8,0.,4.8
1989-08-26T15:13:58.150 ,0,0,0.,4.8,0.,4.8,0.,4.8,0.,4.8
1989-08-26T15:14:02.950 ,0,0,0.,4.8,0.,4.8,0.,4.8,0.,4.8
1989-08-26T15:14:07.750 ,0,0,0.,4.8,0.,4.8,0.,4.8,0.,4.8
1989-08-26T15:14:12.550 ,0,0,0.,4.8,0.,4.8,0.,4.8,0.,4.8
1989-08-26T15:14:17.350 ,0,0,0.,4.8,0.,4.8,0.,4.8,0.,4.8
1989-08-26T15:14:22.150 ,0,0,0.,4.8,0.,4.8,0.,4.8,0.,4.8
1989-08-26T15:14:26.950 ,0,0,0.,4.8,0.,4.8,0.,4.8,0.,4.8
1989-08-26T15:14:31.750 ,0,0,0.,4.8,0.,4.8,0.,4.8,0.,4.8
1989-08-26T15:14:36.550 ,0,0,0.,4.8,0.,4.8,0.,4.8,0.,4.8
1989-08-26T15:14:41.350 ,0,0,0.,4.8,0.,4.8,0.,4.8,0.,4.8
1989-08-26T15:14:46.150 ,0,0,0.,4.8,0.,4.8,0.,4.8,0.,4.8
1989-08-26T15:14:50.950 ,0,0,0.,4.8,0.,4.8,0.,4.8,0.,4.8
1989-08-26T15:14:55.750 ,0,0,0.,4.8,0.,4.8,0.,4.8,0.,4.8
1989-08-26T15:15:00.550 ,0,0,0.,4.8,0.,4.8,0.,4.8,0.,4.8
1989-08-26T15:15:05.350 ,0,0,0.,4.8,0.,4.8,0.,4.8,0.,4.8
1989-08-26T15:15:10.150 ,0,0,0.,4.8,0.,4.8,0.,4.8,0.,4.8
1989-08-26T15:15:14.950 ,1,0,0.,4.8,0.,4.8,0.,4.8,0.,4.8
1989-08-26T15:15:19.750 ,1,0,0.,4.8,0.,4.8,0.,4.8,0.,4.8
1989-08-26T15:15:24.550 ,1,0,0.,4.8,0.,4.8,0.,4.8,0.,4.8
1989-08-26T15:15:29.350 ,1,0,0.,4.8,0.,4.8,0.,4.8,0.,4.8
1989-08-26T15:15:34.150 ,1,0,0.,4.8,0.,4.8,0.,4.8,0.,4.8
1989-08-26T15:15:38.950 ,1,0,0.,4.8,0.,4.8,0.,4.8,0.,4.8
1989-08-26T15:15:43.750 ,1,0,0.,4.8,0.,4.8,0.,4.8,0.,4.8
1989-08-26T15:15:48.550 ,1,0,0.,4.8,0.,4.8,0.,4.8,0.,4.8
1989-08-26T15:15:53.350 ,1,0,0.,4.8,0.,4.8,0.,4.8,0.,4.8
1989-08-26T15:15:58.150 ,1,0,0.,4.8,0.,4.8,0.,4.8,0.,4.8
1989-08-26T15:16:02.950 ,2,0,0.,4.8,0.,4.8,0.,4.8,0.,4.8
1989-08-26T15:16:07.750 ,2,0,0.,4.8,0.,4.8,0.,4.8,0.,4.8
1989-08-26T15:16:12.550 ,2,0,0.,4.8,0.,4.8,0.,4.8,0.,4.8
1989-08-26T15:16:17.350 ,2,0,0.,4.8,0.,4.8,0.,4.8,0.,4.8
1989-08-26T15:16:22.150 ,2,0,0.,4.8,0.,4.8,0.,4.8,0.,4.8
1989-08-26T15:16:26.950 ,2,0,0.,4.8,0.,4.8,0.,4.8,0.,4.8
1989-08-26T15:16:31.750 ,2,0,0.,4.8,0.,4.8,0.,4.8,0.,4.8
1989-08-26T15:16:36.550 ,2,0,0.,4.8,0.,4.8,0.,4.8,0.,4.8
1989-08-26T15:16:41.350 ,2,0,0.,4.8,0.,4.8,0.,4.8,0.,4.8
1989-08-26T15:16:46.150 ,2,0,0.,4.8,0.,4.8,0.,4.8,0.,4.8
1989-08-26T15:16:50.950 ,3,0,0.,4.8,0.,4.8,0.,4.8,0.,4.8
1989-08-26T15:16:55.750 ,3,0,0.,4.8,0.,4.8,0.,4.8,0.,4.8
1989-08-26T15:17:00.550 ,3,0,0.,4.8,0.,4.8,0.,4.8,0.,4.8
1989-08-26T15:17:05.350 ,3,0,0.,4.8,0.,4.8,0.,4.8,0.,4.8
1989-08-26T15:17:10.150 ,3,0,0.,4.8,0.,4.8,0.,4.8,0.,4.8
1989-08-26T15:17:14.950 ,3,0,0.,4.8,0.,4.8,0.,4.8,0.,4.8
1989-08-26T15:17:19.750 ,3,0,0.,4.8,0.,4.8,0.,4.8,0.,4.8
1989-08-26T15:17:24.550 ,3,0,0.,4.8,0.,4.8,0.,4.8,0.,4.8
1989-08-26T15:17:29.350 ,3,0,0.,4.8,0.,4.8,0.,4.8,0.,4.8
1989-08-26T15:17:34.150 ,3,0,0.,4.8,0.,4.8,0.,4.8,0.,4.8
1989-08-26T15:17:38.950 ,4,0,0.,4.8,0.,4.8,0.,4.8,0.,4.8
1989-08-26T15:17:43.750 ,4,0,0.,4.8,0.,4.8,0.,4.8,0.,4.8
1989-08-26T15:17:48.550 ,4,0,0.,4.8,0.,4.8,0.,4.8,0.,4.8
1989-08-26T15:17:53.350 ,4,0,0.,4.8,0.,4.8,0.,4.8,0.,4.8
1989-08-26T15:17:58.150 ,4,0,0.,4.8,0.,4.8,0.,4.8,0.,4.8
1989-08-26T15:18:02.950 ,4,0,0.,4.8,0.,4.8,0.,4.8,0.,4.8
1989-08-26T15:18:07.750 ,4,0,0.,4.8,0.,4.8,0.,4.8,0.,4.8
1989-08-26T15:18:12.550 ,4,0,0.,4.8,0.,4.8,0.,4.8,0.,4.8
1989-08-26T15:18:17.350 ,4,0,0.,4.8,0.,4.8,0.,4.8,0.,4.8
1989-08-26T15:18:22.150 ,4,0,0.,4.8,0.,4.8,0.,4.8,0.,4.8
1989-08-26T15:18:26.950 ,5,0,0.,4.8,0.,4.8,0.,4.8,0.,4.8
1989-08-26T15:18:31.750 ,5,0,0.,4.8,0.,4.8,0.,4.8,0.,4.8
1989-08-26T15:18:36.550 ,5,0,0.,4.8,0.,4.8,0.,4.8,0.,4.8
1989-08-26T15:18:41.350 ,5,0,0.,4.8,0.,4.8,0.,4.8,0.,4.8
1989-08-26T15:18:46.150 ,5,0,0.,4.8,0.,4.8,0.,4.8,0.,4.8
1989-08-26T15:18:50.950 ,5,0,0.,4.8,0.,4.8,0.,4.8,0.,4.8
1989-08-26T15:18:55.750 ,5,0,0.,4.8,0.,4.8,0.,4.8,0.,4.8
1989-08-26T15:19:00.550 ,5,0,0.,4.8,0.,4.8,0.,4.8,0.,4.8
1989-08-26T15:19:05.350 ,5,0,0.,4.8,0.,4.8,0.,4.8,0.,4.8
1989-08-26T15:19:10.150 ,5,0,0.,4.8,0.,4.8,0.,4.8,0.,4.8
1989-08-26T15:19:14.950 ,6,0,0.,4.8,0.,4.8,0.,4.8,0.,4.8
1989-08-26T15:19:19.750 ,6,0,0.,4.8,0.,4.8,0.,4.8,0.,4.8
1989-08-26T15:19:24.550 ,6,0,0.,4.8,0.,4.8,0.,4.8,0.,4.8
1989-08-26T15:19:29.350 ,6,0,0.,4.8,0.,4.8,0.,4.8,0.,4.8
1989-08-26T15:19:34.150 ,6,0,0.,4.8,0.,4.8,0.,4.8,0.,4.8
1989-08-26T15:19:38.950 ,6,0,0.,4.8,0.,4.8,0.,4.8,0.,4.8
1989-08-26T15:19:43.750 ,6,0,0.,4.8,0.,4.8,0.,4.8,0.,4.8
1989-08-26T15:19:48.550 ,6,0,0.,4.8,0.,4.8,0.,4.8,0.,4.8
1989-08-26T15:19:53.350 ,6,0,0.,4.8,0.,4.8,0.,4.8,0.,4.8
1989-08-26T15:19:58.150 ,6,0,0.,4.8,0.,4.8,0.,4.8,0.,4.8
1989-08-26T15:20:02.950 ,7,0,0.,4.8,0.,4.8,0.,4.8,0.,4.8
1989-08-26T15:20:07.750 ,7,0,0.,4.8,0.,4.8,0.,4.8,0.,4.8
1989-08-26T15:20:12.550 ,7,0,0.,4.8,0.,4.8,0.,4.8,0.,4.8
1989-08-26T15:20:17.350 ,7,0,0.,4.8,0.,4.8,0.,4.8,0.,4.8
1989-08-26T15:20:22.150 ,7,0,0.,4.8,0.,4.8,0.,4.8,0.,4.8
1989-08-26T15:20:26.950 ,7,0,0.,4.8,0.,4.8,0.,4.8,0.,4.8
1989-08-26T15:20:31.750 ,7,0,0.,4.8,0.,4.8,0.,4.8,0.,4.8
1989-08-26T15:20:36.550 ,7,0,0.,4.8,0.,4.8,0.,4.8,0.,4.8
1989-08-26T15:20:41.350 ,7,0,0.,4.8,0.,4.8,0.,4.8,0.,4.8
1989-08-26T15:20:46.150 ,7,0,0.,4.8,0.,4.8,0.,4.8,0.,4.8
1989-08-26T15:20:50.950 ,7,0,0.,4.8,0.,4.8,0.,4.8,0.,4.8
1989-08-26T15:20:55.750 ,7,0,0.,4.8,0.,4.8,0.,4.8,0.,4.8
1989-08-26T15:21:00.550 ,7,0,0.,4.8,0.,4.8,0.,4.8,0.,4.8
1989-08-26T15:21:05.350 ,7,0,0.,4.8,0.,4.8,0.,4.8,0.,4.8
1989-08-26T15:21:10.150 ,7,0,0.,4.8,0.,4.8,0.,4.8,0.,4.8
1989-08-26T15:21:14.950 ,7,0,0.,4.8,0.,4.8,0.,4.8,0.,4.8
1989-08-26T15:21:19.750 ,7,0,0.,4.8,0.,4.8,0.,4.8,0.,4.8
1989-08-26T15:21:24.550 ,7,0,0.,4.8,0.,4.8,0.,4.8,0.,4.8
1989-08-26T15:21:29.350 ,7,0,0.,4.8,0.,4.8,0.,4.8,0.,4.8
1989-08-26T15:21:34.150 ,7,0,0.,4.8,0.,4.8,0.,4.8,0.,4.8
1989-08-26T15:21:38.950 ,6,0,0.,4.8,0.,4.8,0.,4.8,0.,4.8
1989-08-26T15:21:43.750 ,6,0,0.,4.8,0.,4.8,0.,4.8,0.,4.8
1989-08-26T15:21:48.550 ,6,0,0.,4.8,0.,4.8,0.,4.8,0.,4.8
1989-08-26T15:21:53.350 ,6,0,0.,4.8,0.,4.8,0.,4.8,0.,4.8
1989-08-26T15:21:58.150 ,6,0,0.,4.8,0.,4.8,0.,4.8,0.,4.8
1989-08-26T15:22:02.950 ,6,0,0.,4.8,0.,4.8,0.,4.8,0.,4.8
1989-08-26T15:22:07.750 ,6,0,0.,4.8,0.,4.8,0.,4.8,0.,4.8
1989-08-26T15:22:12.550 ,6,0,0.,4.8,0.,4.8,0.,4.8,0.,4.8
1989-08-26T15:22:17.350 ,6,0,0.,4.8,0.,4.8,0.,4.8,0.,4.8
1989-08-26T15:22:22.150 ,6,0,0.,4.8,0.,4.8,0.,4.8,0.,4.8
1989-08-26T15:22:26.950 ,5,0,0.,4.8,0.,4.8,0.,4.8,0.,4.8
1989-08-26T15:22:31.750 ,5,0,0.,4.8,0.,4.8,0.,4.8,0.,4.8
1989-08-26T15:22:36.550 ,5,0,0.,4.8,0.,4.8,0.,4.8,0.,4.8
1989-08-26T15:22:41.350 ,5,0,0.,4.8,0.,4.8,0.,4.8,0.,4.8
1989-08-26T15:22:46.150 ,5,0,0.,4.8,0.,4.8,0.,4.8,0.,4.8
1989-08-26T15:22:50.950 ,5,0,0.,4.8,0.,4.8,0.,4.8,0.,4.8
1989-08-26T15:22:55.750 ,5,0,0.,4.8,0.,4.8,0.,4.8,0.,4.8
1989-08-26T15:23:00.550 ,5,0,0.,4.8,0.,4.8,0.,4.8,0.,4.8
1989-08-26T15:23:05.350 ,5,0,0.,4.8,0.,4.8,0.,4.8,0.,4.8
1989-08-26T15:23:10.150 ,5,0,0.,4.8,0.,4.8,0.,4.8,0.,4.8
1989-08-26T15:23:14.950 ,4,0,0.,4.8,0.,4.8,0.,4.8,0.,4.8
1989-08-26T15:23:19.750 ,4,0,0.,4.8,0.,4.8,0.,4.8,0.,4.8
1989-08-26T15:23:24.550 ,4,0,0.,4.8,0.,4.8,0.,4.8,0.,4.8
1989-08-26T15:23:29.350 ,4,0,0.,4.8,0.,4.8,0.,4.8,0.,4.8
1989-08-26T15:23:34.150 ,4,0,0.,4.8,0.,4.8,0.,4.8,0.,4.8
1989-08-26T15:23:38.950 ,4,0,0.,4.8,0.,4.8,0.,4.8,0.,4.8
1989-08-26T15:23:43.750 ,4,0,0.,4.8,0.,4.8,0.,4.8,0.,4.8
1989-08-26T15:23:48.550 ,4,0,0.,4.8,0.,4.8,0.,4.8,0.,4.8
1989-08-26T15:23:53.350 ,4,0,0.,4.8,0.,4.8,0.,4.8,0.,4.8
1989-08-26T15:23:58.150 ,4,0,0.,4.8,0.,4.8,0.,4.8,0.,4.8
1989-08-26T15:24:02.950 ,3,0,0.,4.8,0.,4.8,0.,4.8,0.,4.8
1989-08-26T15:24:07.750 ,3,0,0.,4.8,0.,4.8,0.,4.8,0.,4.8
1989-08-26T15:24:12.550 ,3,0,0.,4.8,0.,4.8,0.,4.8,0.,4.8
1989-08-26T15:24:17.350 ,3,0,0.,4.8,0.,4.8,0.,4.8,0.,4.8
1989-08-26T15:24:22.150 ,3,0,0.,4.8,0.,4.8,0.,4.8,0.,4.8
1989-08-26T15:24:26.950 ,3,0,0.,4.8,0.,4.8,0.,4.8,0.,4.8
1989-08-26T15:24:31.750 ,3,0,0.,4.8,0.,4.8,0.,4.8,0.,4.8
1989-08-26T15:24:36.550 ,3,0,0.,4.8,0.,4.8,0.,4.8,0.,4.8
1989-08-26T15:24:41.350 ,3,0,0.,4.8,0.,4.8,0.,4.8,0.,4.8
1989-08-26T15:24:46.150 ,3,0,0.,4.8,0.,4.8,0.,4.8,0.,4.8
1989-08-26T15:24:50.950 ,2,0,0.,4.8,0.,4.8,0.,4.8,0.,4.8
1989-08-26T15:24:55.750 ,2,0,0.,4.8,0.,4.8,0.,4.8,0.,4.8
1989-08-26T15:25:00.550 ,2,0,0.,4.8,0.,4.8,0.,4.8,0.,4.8
1989-08-26T15:25:05.350 ,2,0,0.,4.8,0.,4.8,0.,4.8,0.,4.8
1989-08-26T15:25:10.150 ,2,0,0.,4.8,0.,4.8,0.,4.8,0.,4.8
1989-08-26T15:25:14.950 ,2,0,0.,4.8,0.,4.8,0.,4.8,0.,4.8
1989-08-26T15:25:19.750 ,2,0,0.,4.8,0.,4.8,0.,4.8,0.,4.8
1989-08-26T15:25:24.550 ,2,0,0.,4.8,0.,4.8,0.,4.8,0.,4.8
1989-08-26T15:25:29.350 ,2,0,0.,4.8,0.,4.8,0.,4.8,0.,4.8
1989-08-26T15:25:34.150 ,2,0,0.,4.8,0.,4.8,0.,4.8,0.,4.8
1989-08-26T15:25:38.950 ,1,0,0.,4.8,0.,4.8,0.,4.8,0.,4.8
1989-08-26T15:25:43.750 ,1,0,0.,4.8,0.,4.8,0.,4.8,0.,4.8
1989-08-26T15:25:48.550 ,1,0,0.,4.8,0.,4.8,0.,4.8,0.,4.8
1989-08-26T15:25:53.350 ,1,0,0.,4.8,0.,4.8,0.,4.8,0.,4.8
1989-08-26T15:25:58.150 ,1,0,0.,4.8,0.,4.8,0.,4.8,0.,4.8
1989-08-26T15:26:02.950 ,1,0,0.,4.8,0.,4.8,0.,4.8,0.,4.8
1989-08-26T15:26:07.750 ,1,0,0.,4.8,0.,4.8,0.,4.8,0.,4.8
1989-08-26T15:26:12.550 ,1,0,0.,4.8,0.,4.8,0.,4.8,0.,4.8
1989-08-26T15:26:17.350 ,1,0,0.,4.8,0.,4.8,0.,4.8,0.,4.8
1989-08-26T15:26:22.150 ,1,0,0.,4.8,0.,4.8,0.,4.8,0.,4.8
1989-08-26T15:26:26.950 ,0,0,0.,4.8,0.,4.8,0.,4.8,0.,4.8
1989-08-26T15:26:31.750 ,0,0,0.,4.8,0.,4.8,0.,4.8,0.,4.8
1989-08-26T15:26:36.550 ,0,0,0.,4.8,0.,4.8,0.,4.8,0.,4.8
1989-08-26T15:26:41.350 ,0,0,0.,4.8,0.,4.8,0.,4.8,0.,4.8
1989-08-26T15:26:46.150 ,0,0,0.,4.8,0.,4.8,0.,4.8,0.,4.8
1989-08-26T15:26:50.950 ,0,0,0.,4.8,0.,4.8,0.,4.8,0.,4.8
1989-08-26T15:26:55.750 ,0,0,0.,4.8,0.,4.8,0.,4.8,0.,4.8
1989-08-26T15:27:00.550 ,0,0,0.,4.8,0.,4.8,0.,4.8,0.,4.8
1989-08-26T15:27:05.350 ,0,0,0.,4.8,0.,4.8,0.,4.8,0.,4.8
1989-08-26T15:27:10.150 ,0,0,0.,4.8,0.,4.8,0.,4.8,0.,4.8
1989-08-26T15:27:14.950 ,0,0,0.,4.8,0.,4.8,0.,4.8,0.,4.8
1989-08-26T15:27:19.750 ,0,0,0.,4.8,0.,4.8,0.,4.8,0.,4.8
1989-08-26T15:27:24.550 ,0,0,0.,4.8,0.,4.8,0.,4.8,0.,4.8
1989-08-26T15:27:29.350 ,0,0,0.,4.8,0.,4.8,0.,4.8,0.,4.8
1989-08-26T15:27:34.150 ,0,0,0.,4.8,0.,4.8,0.,4.8,0.,4.8
1989-08-26T15:27:38.950 ,0,0,0.,4.8,0.,4.8,0.,4.8,0.,4.8
1989-08-26T15:27:43.750 ,0,0,0.,4.8,0.,4.8,0.,4.8,0.,4.8
1989-08-26T15:27:48.550 ,0,0,0.,4.8,0.,4.8,0.,4.8,0.,4.8
1989-08-26T15:27:53.350 ,0,0,0.,4.8,0.,4.8,0.,4.8,0.,4.8
1989-08-26T15:27:58.150 ,0,0,0.,4.8,0.,4.8,0.,4.8,0.,4.8
1989-08-26T15:28:02.950 ,1,0,0.,4.8,0.,4.8,0.,4.8,0.,4.8
1989-08-26T15:28:07.750 ,1,0,0.,4.8,0.,4.8,0.,4.8,0.,4.8
1989-08-26T15:28:12.550 ,1,0,0.,4.8,0.,4.8,0.,4.8,0.,4.8
1989-08-26T15:28:17.350 ,1,0,0.,4.8,0.,4.8,0.,4.8,0.,4.8
1989-08-26T15:28:22.150 ,1,0,0.,4.8,0.,4.8,0.,4.8,0.,4.8
1989-08-26T15:28:26.950 ,1,0,0.,4.8,0.,4.8,0.,4.8,0.,4.8
1989-08-26T15:28:31.750 ,1,0,0.,4.8,0.,4.8,0.,4.8,0.,4.8
1989-08-26T15:28:36.550 ,1,0,0.,4.8,0.,4.8,0.,4.8,0.,4.8
1989-08-26T15:28:41.350 ,1,0,0.,4.8,0.,4.8,0.,4.8,0.,4.8
1989-08-26T15:28:46.150 ,1,0,0.,4.8,0.,4.8,0.,4.8,0.,4.8
1989-08-26T15:28:50.950 ,2,0,0.,4.8,0.,4.8,0.,4.8,0.,4.8
1989-08-26T15:28:55.750 ,2,0,0.,4.8,0.,4.8,0.,4.8,0.,4.8
1989-08-26T15:29:00.550 ,2,0,0.,4.8,0.,4.8,0.,4.8,0.,4.8
1989-08-26T15:29:05.350 ,2,0,0.,4.8,0.,4.8,0.,4.8,0.,4.8
1989-08-26T15:29:10.150 ,2,0,0.,4.8,0.,4.8,0.,4.8,0.,4.8
1989-08-26T15:29:14.950 ,2,0,0.,4.8,0.,4.8,0.,4.8,0.,4.8
1989-08-26T15:29:19.750 ,2,0,0.,4.8,0.,4.8,0.,4.8,0.,4.8
1989-08-26T15:29:24.550 ,2,0,0.,4.8,0.,4.8,0.,4.8,0.,4.8
1989-08-26T15:29:29.350 ,2,0,0.,4.8,0.,4.8,0.,4.8,0.,4.8
1989-08-26T15:29:34.150 ,2,0,0.,4.8,0.,4.8,0.,4.8,0.,4.8
1989-08-26T15:29:38.950 ,3,0,0.,4.8,0.,4.8,0.,4.8,0.,4.8
1989-08-26T15:29:43.750 ,3,0,0.,4.8,0.,4.8,0.,4.8,0.,4.8
1989-08-26T15:29:48.550 ,3,0,0.,4.8,0.,4.8,0.,4.8,0.,4.8
1989-08-26T15:29:53.350 ,3,0,0.,4.8,0.,4.8,0.,4.8,0.,4.8
1989-08-26T15:29:58.150 ,3,0,0.,4.8,0.,4.8,0.,4.8,0.,4.8
1989-08-26T15:30:02.950 ,3,0,0.,4.8,0.,4.8,0.,4.8,0.,4.8
1989-08-26T15:30:07.750 ,3,0,0.,4.8,0.,4.8,0.,4.8,0.,4.8
1989-08-26T15:30:12.550 ,3,0,0.,4.8,0.,4.8,0.,4.8,0.,4.8
1989-08-26T15:30:17.350 ,3,0,0.,4.8,0.,4.8,0.,4.8,0.,4.8
1989-08-26T15:30:22.150 ,3,0,0.,4.8,0.,4.8,0.,4.8,0.,4.8
1989-08-26T15:30:26.950 ,4,0,0.,4.8,0.,4.8,0.,4.8,0.,4.8
1989-08-26T15:30:31.750 ,4,0,0.,4.8,0.,4.8,0.,4.8,0.,4.8
1989-08-26T15:30:36.550 ,4,0,0.,4.8,0.,4.8,0.,4.8,0.,4.8
1989-08-26T15:30:41.350 ,4,0,0.,4.8,0.,4.8,0.,4.8,0.,4.8
1989-08-26T15:30:46.150 ,4,0,0.,4.8,0.,4.8,0.,4.8,0.,4.8
1989-08-26T15:30:50.950 ,4,0,0.,4.8,0.,4.8,0.,4.8,0.,4.8
1989-08-26T15:30:55.750 ,4,0,0.,4.8,0.,4.8,0.,4.8,0.,4.8
1989-08-26T15:31:00.550 ,4,0,0.,4.8,0.,4.8,0.,4.8,0.,4.8
1989-08-26T15:31:05.350 ,4,0,0.,4.8,0.,4.8,0.,4.8,0.,4.8
1989-08-26T15:31:10.150 ,4,0,0.,4.8,0.,4.8,0.,4.8,0.,4.8
1989-08-26T15:31:14.950 ,5,0,0.,4.8,0.,4.8,0.,4.8,0.,4.8
1989-08-26T15:31:19.750 ,5,0,0.,4.8,0.,4.8,0.,4.8,0.,4.8
1989-08-26T15:31:24.550 ,5,0,0.,4.8,0.,4.8,0.,4.8,0.,4.8
1989-08-26T15:31:29.350 ,5,0,0.,4.8,0.,4.8,0.,4.8,0.,4.8
1989-08-26T15:31:34.150 ,5,0,0.,4.8,0.,4.8,0.,4.8,0.,4.8
1989-08-26T15:31:38.950 ,5,0,0.,4.8,0.,4.8,0.,4.8,0.,4.8
1989-08-26T15:31:43.750 ,5,0,0.,4.8,0.,4.8,0.,4.8,0.,4.8
1989-08-26T15:31:48.550 ,5,0,0.,4.8,0.,4.8,0.,4.8,0.,4.8
1989-08-26T15:31:53.350 ,5,0,0.,4.8,0.,4.8,0.,4.8,0.,4.8
1989-08-26T15:31:58.150 ,5,0,0.,4.8,0.,4.8,0.,4.8,0.,4.8
1989-08-26T15:32:02.950 ,6,0,0.,4.8,0.,4.8,0.,4.8,0.,4.8
1989-08-26T15:32:07.750 ,6,0,0.,4.8,0.,4.8,0.,4.8,0.,4.8
1989-08-26T15:32:12.550 ,6,0,0.,4.8,0.,4.8,0.,4.8,0.,4.8
1989-08-26T15:32:17.350 ,6,0,0.,4.8,0.,4.8,0.,4.8,0.,4.8
1989-08-26T15:32:22.150 ,6,0,0.,4.8,0.,4.8,0.,4.8,0.,4.8
1989-08-26T15:32:26.950 ,6,0,0.,4.8,0.,4.8,0.,4.8,0.,4.8
1989-08-26T15:32:31.750 ,6,0,0.,4.8,0.,4.8,0.,4.8,0.,4.8
1989-08-26T15:32:36.550 ,6,0,0.,4.8,0.,4.8,0.,4.8,0.,4.8
1989-08-26T15:32:41.350 ,6,0,0.,4.8,0.,4.8,0.,4.8,0.,4.8
1989-08-26T15:32:46.150 ,6,0,0.,4.8,0.,4.8,0.,4.8,0.,4.8
1989-08-26T15:32:50.950 ,7,0,0.,4.8,0.,4.8,0.,4.8,0.,4.8
1989-08-26T15:32:55.750 ,7,0,0.,4.8,0.,4.8,0.,4.8,0.,4.8
1989-08-26T15:33:00.550 ,7,0,0.,4.8,0.,4.8,0.,4.8,0.,4.8
1989-08-26T15:33:05.350 ,7,0,0.,4.8,0.,4.8,0.,4.8,0.,4.8
1989-08-26T15:33:10.150 ,7,0,0.,4.8,0.,4.8,0.,4.8,0.,4.8
1989-08-26T15:33:14.950 ,7,0,0.,4.8,0.,4.8,0.,4.8,0.,4.8
1989-08-26T15:33:19.750 ,7,0,0.,4.8,0.,4.8,0.,4.8,0.,4.8
1989-08-26T15:33:24.550 ,7,0,0.,4.8,0.,4.8,0.,4.8,0.,4.8
1989-08-26T15:33:29.350 ,7,0,0.,4.8,0.,4.8,0.,4.8,0.,4.8